THOR ABLESTAR DEB, 5716

Orbit data source: Space-Track

THOR ABLESTAR DEB, 5716 is space debris in LEO originally from a launch on Thu, 29 Jun 1961 UTC launched from the Air Force Eastern Test Range (AFETR). Debris objects in space refer to the collection of defunct objects orbiting the Earth. Examples of debris include non-operational satellites, rocket bodies, and fragments generated from explosions, collisions, or faulty payload assembly.

Loading next visibility...
Identifier
5716, 1961-015JT
Orbit
LEO
Country
Flag of USUS
Related business
Manufacturer
Unknown
Mission
Spacecraft
Bus & Motor
Unknown
Mass
Unknown
Launch date (UTC)
1961-06-29 (65 years ago)
Launch vehicle
Unknown
Launch site
Air Force Eastern Test Range (AFETR)
Object type
Payload
Rocket body
Debris
Shape & HBR
Unknown shape, 0.1 m
Radar Cross Section
Small (<0.1 m²)

Expand to show TLE details & history
Last TLE update: 10 hours ago

TLE from 10 hours ago
0 THOR ABLESTAR DEB
1  5716U 61015JT  26177.53920955  .00001635  00000-0  30624-3 0  9996
2  5716  66.6933 226.2436 0065761   3.8842 356.2771 14.66258130361770
Epoch: 2026-06-26T12:56Z
TLE epoch observation values (Epoch: 2026-06-26T12:56:27.705Z)
Latitude
0.00004°
Longitude
117.46191°
Altitude
628.905 km
Speed
7.569 km/s
True Right ascension
15h 04m 58s
True Declination
0° 00' 00"
Sunlit
Object was in full shadow at epoch
Visualization orbit readout
Latitude
Unknown
Longitude
Unknown
Altitude
Unknown
Speed
Unknown
Apparent Right ascension
Unknown
Apparent Declination
Unknown
Sunlit
N/A
Visualization observer readout
Local Sidereal Time
10:28:58
Azimuth
Unknown
Elevation
Unknown
Doppler factor
Unknown
Orbital elements
Apogee altitude
717.745 km
Perigee altitude
625.029 km
Semi-major axis
7,049.524 km
Eccentricity
0.00658
Inclination
66.6933°
RAAN
226.2436°
Arg. of periapsis
3.8842°
True anomaly
356.22777°
Mean anomaly
356.2771°
Eccentric anomaly
356.25247°
Mean motion
3.66694 °/min
Orbital period
98.17 mins
BSTAR
0.00030624

Documentation

Showing up to 5 results
|